Wind From: 11-12-2017 06:00 Until: 12-12-2017 06:00 warning for: Wind Level: Orange info button

Power and phone distribution networks may be disrupted for relatively long periods., Roofs and chimneys can be damaged. , Tree branches may break. , Vehicles can be deported. , Traffic may be disrupted, particularly on secondary roads in forest areas. Limit your trips. , Limit your speed in highway driving, especially if you drive a vehicle or hitch sensitive to wind. , Do not go for walks in forests or along the coast., In town, be vigilant against possible falling objects., Do not work on roofs and do not touch any electrical line fallen on the ground., Store or secure sensitive objects to wind or likely to be damaged., Always install power generators outside buildings. 


Meteo18 Weather Cam more information Meteo18 Weather Cam


Thunder radar more information blitzortung!


Rain radar more information rain snow radar


Visit our other weather sites:

Template documentation
and downloads

And another site



Weather Underground History page Text

Daily Summary for February 4, 2017 Units:  English    Metric   Both
« Previous Day
Next Day »
Daily Weekly Monthly Yearly Custom
  High: Low: Average:
Temperature: 47.5 °F 37.2 °F 43 °F
Dew Point: 44.2 °F 34.5 °F 39.2 °F
Humidity: 94 % 73 % 87 %
Wind Speed: 36 mph 0 mph 8.4 mph
Wind Gust: 43 mph - -
Wind:- - SSW
Pressure: 29.7 in 29.2 in -
Precipitation: 0.61 in    
Historical Graphs
 
 
Tabular Data for February 4, 2017
Time Temperature Dew Point Pressure Wind Wind Speed Wind Gust Humidity Rainfall Rate (Hourly)
00:02 40.8 °F 38.1 °F 29.7 in ESE 4 mph 8 mph 90 % 0 in
00:07 40.8 °F 37.8 °F 29.7 in SSE 2 mph 8 mph 89 % 0 in
00:12 40.8 °F 37.8 °F 29.7 in SSE 4 mph 7 mph 89 % 0 in
00:17 40.8 °F 37.8 °F 29.7 in SSE 3 mph 7 mph 89 % 0 in
00:22 40.8 °F 37.8 °F 29.7 in SSE 1 mph 7 mph 89 % 0 in
00:27 40.8 °F 37.8 °F 29.7 in SSE 1 mph 7 mph 89 % 0 in
00:32 40.8 °F 37.8 °F 29.7 in SSE 1 mph 7 mph 89 % 0 in
00:42 40.8 °F 37.8 °F 29.7 in SE 2 mph 7 mph 89 % 0 in
00:47 40.8 °F 37.8 °F 29.7 in SE 1 mph 7 mph 89 % 0 in
00:52 40.8 °F 37.6 °F 29.7 in ESE 5 mph 7 mph 88 % 0 in
00:57 41.2 °F 37.9 °F 29.6 in ESE 2 mph 7 mph 88 % 0 in
01:02 41.4 °F 37.8 °F 29.6 in ESE 2 mph 9 mph 87 % 0 in
01:07 41.4 °F 37.8 °F 29.6 in SE 3 mph 9 mph 87 % 0 in
01:12 41.2 °F 37.9 °F 29.6 in SE 6 mph 8 mph 88 % 0 in
01:17 41.2 °F 37.9 °F 29.6 in SSE 2 mph 7 mph 88 % 0 in
01:22 41.2 °F 37.6 °F 29.6 in SE 3 mph 7 mph 87 % 0 in
01:27 41.4 °F 37.8 °F 29.6 in SE 6 mph 7 mph 87 % 0 in
01:32 41.4 °F 37.8 °F 29.6 in SE 4 mph 8 mph 87 % 0 in
01:37 41.5 °F 37.6 °F 29.6 in SE 9 mph 9 mph 86 % 0 in
01:42 41.5 °F 37.6 °F 29.6 in SE 4 mph 9 mph 86 % 0 in
01:47 41.4 °F 37.6 °F 29.6 in ESE 5 mph 9 mph 86 % 0 in
01:52 41.4 °F 37.6 °F 29.6 in SSE 4 mph 9 mph 86 % 0 in
01:57 41.2 °F 37.4 °F 29.6 in South 4 mph 9 mph 86 % 0 in
02:02 41.2 °F 37.6 °F 29.6 in SE 5 mph 7 mph 87 % 0 in
02:07 41.2 °F 37.6 °F 29.6 in SE 4 mph 7 mph 87 % 0 in
02:12 41.2 °F 37.6 °F 29.6 in ESE 3 mph 7 mph 87 % 0 in
02:17 41.2 °F 37.6 °F 29.6 in SSE 1 mph 7 mph 87 % 0 in
02:22 41.2 °F 37.6 °F 29.6 in SSE 1 mph 6 mph 87 % 0 in
02:27 41.2 °F 37.6 °F 29.6 in SE 3 mph 5 mph 87 % 0 in
02:32 41.2 °F 37.6 °F 29.6 in Calm   9 mph 87 % 0 in
02:37 41.2 °F 37.6 °F 29.6 in SE 3 mph 9 mph 87 % 0 in
02:42 41.2 °F 37.6 °F 29.6 in SE 4 mph 6 mph 87 % 0 in
02:47 41.4 °F 37.8 °F 29.5 in ESE 7 mph 7 mph 87 % 0 in
02:52 41.7 °F 37.8 °F 29.6 in SSE 5 mph 13 mph 86 % 0 in
02:57 42.1 °F 38.1 °F 29.6 in East 9 mph 14 mph 86 % 0 in
03:02 42.3 °F 38.1 °F 29.6 in SSE 3 mph 14 mph 85 % 0 in
03:07 42.3 °F 38.1 °F 29.6 in SSE 1 mph 11 mph 85 % 0 in
03:12 42.3 °F 38.1 °F 29.6 in SSE 2 mph 11 mph 85 % 0 in
03:17 42.4 °F 37.9 °F 29.6 in SE 1 mph 9 mph 84 % 0 in
03:22 42.4 °F 37.9 °F 29.6 in SE 3 mph 9 mph 84 % 0 in
03:27 42.6 °F 37.8 °F 29.6 in SSE 2 mph 8 mph 83 % 0 in
03:32 42.6 °F 37.8 °F 29.6 in SSE 3 mph 10 mph 83 % 0 in
03:37 42.6 °F 37.8 °F 29.5 in SE 1 mph 10 mph 83 % 0 in
03:42 42.8 °F 37.8 °F 29.5 in SE 6 mph 8 mph 82 % 0 in
03:47 42.8 °F 37.8 °F 29.5 in ESE 7 mph 10 mph 82 % 0 in
03:52 43 °F 37.9 °F 29.5 in SE 4 mph 12 mph 82 % 0 in
03:57 42.6 °F 37.6 °F 29.5 in ESE 3 mph 12 mph 82 % 0 in
04:02 42.6 °F 37.8 °F 29.5 in SE 4 mph 9 mph 83 % 0 in
04:07 42.4 °F 37.6 °F 29.5 in ESE 4 mph 9 mph 83 % 0 in
04:12 42.4 °F 37.9 °F 29.5 in SE 8 mph 12 mph 84 % 0.01 in
04:17 42.3 °F 38.1 °F 29.5 in ESE 9 mph 13 mph 85 % 0.02 in
04:22 42.1 °F 38.1 °F 29.5 in SE 6 mph 19 mph 86 % 0.04 in
04:27 41.5 °F 38.3 °F 29.5 in ESE 3 mph 19 mph 88 % 0.05 in
04:32 41.4 °F 38.3 °F 29.5 in SE 8 mph 19 mph 89 % 0.06 in
04:37 41.2 °F 38.1 °F 29.5 in East 10 mph 14 mph 89 % 0.07 in
04:42 41.2 °F 38.5 °F 29.5 in SSE 8 mph 14 mph 90 % 0.09 in
04:47 41 °F 38.7 °F 29.5 in ESE 4 mph 10 mph 91 % 0.1 in
04:52 41 °F 38.7 °F 29.5 in ESE 8 mph 10 mph 91 % 0.11 in
04:57 41 °F 38.7 °F 29.5 in SE 5 mph 14 mph 91 % 0.13 in
05:02 40.8 °F 38.7 °F 29.5 in SE 3 mph 14 mph 92 % 0.13 in
05:12 40.8 °F 39 °F 29.5 in SE 10 mph 10 mph 93 % 0.13 in
05:17 41.2 °F 39 °F 29.5 in SE 8 mph 11 mph 92 % 0.12 in
05:22 41.2 °F 39 °F 29.5 in SE 8 mph 12 mph 92 % 0.11 in
05:27 41.4 °F 39.2 °F 29.5 in SE 10 mph 13 mph 92 % 0.11 in
05:37 41.7 °F 39.6 °F 29.5 in SSE 9 mph 18 mph 92 % 0.1 in
05:42 41.7 °F 39.6 °F 29.5 in SE 10 mph 18 mph 92 % 0.09 in
05:47 41.9 °F 39.7 °F 29.4 in SE 6 mph 18 mph 92 % 0.09 in
05:52 41.7 °F 39.6 °F 29.4 in East 7 mph 17 mph 92 % 0.09 in
05:57 41.7 °F 39.6 °F 29.4 in SE 6 mph 16 mph 92 % 0.08 in
06:02 41.9 °F 39.7 °F 29.4 in SSE 8 mph 16 mph 92 % 0.07 in
06:07 41.9 °F 39.7 °F 29.4 in SSE 4 mph 16 mph 92 % 0.07 in
06:12 41.7 °F 39.9 °F 29.4 in SSE 6 mph 14 mph 93 % 0.07 in
06:17 41.9 °F 40.1 °F 29.4 in SSE 5 mph 14 mph 93 % 0.06 in
06:22 42.3 °F 40.5 °F 29.4 in South 10 mph 14 mph 93 % 0.06 in
06:27 42.4 °F 40.6 °F 29.4 in SSE 9 mph 18 mph 93 % 0.06 in
06:32 42.6 °F 40.5 °F 29.4 in SE 7 mph 18 mph 92 % 0.06 in
06:37 43 °F 40.8 °F 29.4 in SSW 8 mph 18 mph 92 % 0.06 in
06:42 43.2 °F 41 °F 29.4 in SE 5 mph 17 mph 92 % 0.06 in
06:47 43.2 °F 41.4 °F 29.4 in SSE 6 mph 16 mph 93 % 0.05 in
06:52 43.3 °F 41.5 °F 29.4 in South 10 mph 16 mph 93 % 0.06 in
07:02 43.5 °F 41.4 °F 29.4 in SSE 5 mph 16 mph 92 % 0.04 in
07:07 43.5 °F 41.4 °F 29.4 in SSE 2 mph 13 mph 92 % 0.04 in
07:12 43.5 °F 41.4 °F 29.4 in South 3 mph 13 mph 92 % 0.03 in
07:17 43.5 °F 41 °F 29.4 in ESE 4 mph 11 mph 91 % 0.03 in
07:22 43.5 °F 41 °F 29.4 in SSW 5 mph 11 mph 91 % 0.02 in
07:27 43.5 °F 41 °F 29.4 in ESE 6 mph 12 mph 91 % 0.02 in
07:32 43.3 °F 40.8 °F 29.4 in SSW 9 mph 13 mph 91 % 0.02 in
07:37 43.3 °F 40.8 °F 29.3 in ESE 7 mph 13 mph 91 % 0.02 in
07:42 43.3 °F 40.8 °F 29.3 in SE 6 mph 13 mph 91 % 0.01 in
07:47 43.3 °F 40.8 °F 29.3 in SE 2 mph 12 mph 91 % 0 in
07:52 43.2 °F 40.6 °F 29.3 in SSE 4 mph 12 mph 91 % 0 in
07:57 43.2 °F 40.6 °F 29.3 in SE 7 mph 12 mph 91 % 0 in
08:02 43.3 °F 40.8 °F 29.3 in SE 6 mph 12 mph 91 % 0 in
08:07 43.3 °F 40.6 °F 29.3 in SE 11 mph 16 mph 90 % 0 in
08:12 43.5 °F 40.8 °F 29.3 in SE 8 mph 17 mph 90 % 0 in
08:17 43.9 °F 40.8 °F 29.3 in ESE 8 mph 17 mph 89 % 0 in
08:22 44.1 °F 41 °F 29.3 in ESE 6 mph 22 mph 89 % 0 in
08:32 44.2 °F 41 °F 29.3 in ESE 15 mph 19 mph 88 % 0 in
08:37 44.8 °F 41.2 °F 29.3 in South 14 mph 19 mph 87 % 0 in
08:42 45.1 °F 41.2 °F 29.3 in SE 7 mph 21 mph 86 % 0.01 in
08:47 45 °F 41.4 °F 29.3 in SE 12 mph 23 mph 87 % 0.02 in
08:52 44.8 °F 41.2 °F 29.3 in SSE 6 mph 23 mph 87 % 0.02 in
08:57 44.8 °F 41.4 °F 29.3 in South 17 mph 23 mph 88 % 0.02 in
09:02 45 °F 41.4 °F 29.2 in SE 10 mph 29 mph 87 % 0.03 in
09:07 45.1 °F 41.5 °F 29.2 in SSW 16 mph 29 mph 87 % 0.04 in
09:12 45.3 °F 41.7 °F 29.2 in SSE 10 mph 29 mph 87 % 0.04 in
09:17 45.1 °F 41.7 °F 29.2 in SE 6 mph 24 mph 88 % 0.06 in
09:22 45 °F 41.9 °F 29.2 in SE 15 mph 27 mph 89 % 0.09 in
09:32 44.4 °F 41.7 °F 29.2 in SE 8 mph 27 mph 90 % 0.13 in
09:37 44.4 °F 41.9 °F 29.2 in SSE 17 mph 24 mph 91 % 0.14 in
09:42 44.4 °F 42.3 °F 29.2 in South 14 mph 24 mph 92 % 0.15 in
09:47 44.8 °F 42.8 °F 29.2 in SSW 21 mph 24 mph 93 % 0.17 in
09:52 45 °F 43 °F 29.2 in SSW 15 mph 28 mph 93 % 0.18 in
09:57 45.1 °F 43.2 °F 29.2 in SSW 25 mph 28 mph 93 % 0.18 in
10:02 45.9 °F 43.7 °F 29.2 in WSW 34 mph 40 mph 92 % 0.19 in
10:07 46.2 °F 43.7 °F 29.2 in SW 22 mph 40 mph 91 % 0.18 in
10:12 46.2 °F 43.7 °F 29.2 in WSW 36 mph 40 mph 91 % 0.18 in
10:17 46.2 °F 43.5 °F 29.2 in WSW 24 mph 40 mph 90 % 0.17 in
10:22 46.2 °F 43.5 °F 29.2 in WSW 22 mph 40 mph 90 % 0.14 in
10:27 46.2 °F 43.5 °F 29.3 in SW 25 mph 40 mph 90 % 0.13 in
10:32 46.2 °F 43.5 °F 29.3 in WSW 21 mph 40 mph 90 % 0.13 in
10:37 46.2 °F 43.5 °F 29.3 in WSW 17 mph 40 mph 90 % 0.12 in
10:42 46.2 °F 43.7 °F 29.3 in SW 21 mph 40 mph 91 % 0.09 in
10:47 46 °F 43.5 °F 29.3 in SW 18 mph 40 mph 91 % 0.09 in
10:57 45.9 °F 43.9 °F 29.3 in SW 10 mph 34 mph 93 % 0.09 in
11:02 45.9 °F 43.7 °F 29.3 in WSW 8 mph 30 mph 92 % 0.08 in
11:07 45.9 °F 43.9 °F 29.3 in SSW 14 mph 30 mph 93 % 0.07 in
11:12 45.9 °F 43.9 °F 29.3 in SW 13 mph 30 mph 93 % 0.08 in
11:17 45.9 °F 43.9 °F 29.3 in WSW 15 mph 30 mph 93 % 0.07 in
11:22 45.9 °F 43.9 °F 29.4 in WSW 17 mph 32 mph 93 % 0.07 in
11:27 45.7 °F 43.7 °F 29.4 in WSW 13 mph 32 mph 93 % 0.06 in
11:32 45.7 °F 44.1 °F 29.4 in West 23 mph 37 mph 94 % 0.05 in
11:37 45.7 °F 43.7 °F 29.4 in West 20 mph 37 mph 93 % 0.05 in
11:42 46 °F 44.1 °F 29.4 in West 9 mph 37 mph 93 % 0.04 in
11:47 45.9 °F 43.9 °F 29.4 in WSW 18 mph 37 mph 93 % 0.03 in
11:52 45.9 °F 44.2 °F 29.4 in West 12 mph 37 mph 94 % 0.02 in
11:57 45.7 °F 44.1 °F 29.4 in WSW 22 mph 31 mph 94 % 0.02 in
12:02 45.7 °F 44.1 °F 29.4 in West 25 mph 27 mph 94 % 0.02 in
12:07 45.7 °F 44.1 °F 29.4 in West 18 mph 32 mph 94 % 0.02 in
12:12 45.7 °F 44.1 °F 29.4 in West 17 mph 32 mph 94 % 0.02 in
12:17 45.3 °F 43.7 °F 29.4 in WSW 26 mph 32 mph 94 % 0.02 in
12:22 45.1 °F 43.2 °F 29.4 in WSW 27 mph 32 mph 93 % 0.03 in
12:27 45.1 °F 42.6 °F 29.4 in West 23 mph 32 mph 91 % 0.03 in
12:32 45.1 °F 43 °F 29.4 in West 16 mph 37 mph 92 % 0.02 in
12:37 44.6 °F 42.1 °F 29.5 in WNW 21 mph 38 mph 91 % 0.02 in
12:42 44.1 °F 41.4 °F 29.5 in West 31 mph 38 mph 90 % 0.03 in
12:47 43.7 °F 41 °F 29.5 in West 29 mph 38 mph 90 % 0.03 in
12:52 43.5 °F 40.5 °F 29.5 in WSW 27 mph 40 mph 89 % 0.03 in
12:57 43.3 °F 39.4 °F 29.5 in West 31 mph 40 mph 86 % 0.03 in
13:02 43.2 °F 39.2 °F 29.5 in West 20 mph 41 mph 86 % 0.03 in
13:07 43.3 °F 38.8 °F 29.5 in WNW 23 mph 41 mph 84 % 0.02 in
13:12 43.3 °F 39.4 °F 29.5 in West 12 mph 43 mph 86 % 0.03 in
13:17 43.2 °F 39.6 °F 29.5 in WSW 27 mph 43 mph 87 % 0.02 in
13:22 43.2 °F 39.2 °F 29.5 in West 23 mph 43 mph 86 % 0.02 in
13:27 43.3 °F 39.2 °F 29.5 in West 19 mph 33 mph 85 % 0.02 in
13:32 43.3 °F 39.2 °F 29.5 in WSW 10 mph 33 mph 85 % 0.02 in
13:37 43.3 °F 39.2 °F 29.6 in West 20 mph 29 mph 85 % 0.02 in
13:42 43.5 °F 39.4 °F 29.6 in WNW 13 mph 29 mph 85 % 0.01 in
13:47 43.5 °F 39 °F 29.6 in West 20 mph 30 mph 84 % 0.01 in
13:52 43.7 °F 39.2 °F 29.6 in NW 20 mph 30 mph 84 % 0.01 in
13:57 43.9 °F 39.4 °F 29.6 in West 8 mph 35 mph 84 % 0.01 in
14:02 43.9 °F 39.4 °F 29.6 in WSW 14 mph 35 mph 84 % 0.01 in
14:07 43.9 °F 39.7 °F 29.6 in WSW 22 mph 35 mph 85 % 0 in
14:12 43.9 °F 39.7 °F 29.6 in WSW 20 mph 30 mph 85 % 0 in
14:17 43.9 °F 39.7 °F 29.6 in WSW 9 mph 30 mph 85 % 0 in
14:27 44.1 °F 39.9 °F 29.6 in West 23 mph 24 mph 85 % 0 in
14:32 44.2 °F 39.7 °F 29.6 in WNW 17 mph 26 mph 84 % 0 in
14:37 44.4 °F 39.9 °F 29.6 in West 15 mph 27 mph 84 % 0 in
14:42 44.6 °F 39.7 °F 29.6 in West 14 mph 27 mph 83 % 0 in
14:47 44.8 °F 39.9 °F 29.6 in West 20 mph 27 mph 83 % 0 in
14:52 44.8 °F 39.6 °F 29.6 in West 16 mph 27 mph 82 % 0 in
14:57 45 °F 39.7 °F 29.6 in West 10 mph 27 mph 82 % 0 in
15:02 45.1 °F 39.7 °F 29.6 in WSW 15 mph 29 mph 81 % 0 in
15:07 45.3 °F 39.9 °F 29.6 in WSW 13 mph 30 mph 81 % 0 in
15:12 45.3 °F 39.9 °F 29.6 in WSW 6 mph 30 mph 81 % 0 in
15:17 45.3 °F 39.9 °F 29.6 in WSW 18 mph 30 mph 81 % 0 in
15:22 45.5 °F 39.7 °F 29.7 in West 24 mph 24 mph 80 % 0 in
15:27 45.7 °F 39.9 °F 29.7 in West 9 mph 25 mph 80 % 0 in
15:32 45.9 °F 40.1 °F 29.7 in West 13 mph 25 mph 80 % 0 in
15:37 45.9 °F 39.7 °F 29.7 in WSW 11 mph 25 mph 79 % 0 in
15:42 46 °F 39.6 °F 29.7 in West 14 mph 27 mph 78 % 0 in
15:47 46 °F 39.2 °F 29.7 in SW 10 mph 27 mph 77 % 0 in
15:52 46 °F 39.2 °F 29.7 in WSW 11 mph 27 mph 77 % 0 in
15:57 46.2 °F 39.4 °F 29.7 in WNW 9 mph 22 mph 77 % 0 in
16:02 46.2 °F 39.7 °F 29.7 in WSW 12 mph 19 mph 78 % 0 in
16:07 46.4 °F 39.9 °F 29.7 in West 11 mph 19 mph 78 % 0 in
16:12 46.6 °F 40.1 °F 29.7 in WSW 11 mph 21 mph 78 % 0 in
16:17 46.6 °F 40.1 °F 29.7 in WNW 9 mph 21 mph 78 % 0 in
16:22 46.4 °F 39.9 °F 29.7 in West 15 mph 21 mph 78 % 0 in
16:27 46.4 °F 39.6 °F 29.7 in West 11 mph 22 mph 77 % 0 in
16:32 46.4 °F 39.6 °F 29.7 in WSW 10 mph 22 mph 77 % 0 in
16:37 46.6 °F 39.7 °F 29.7 in West 12 mph 22 mph 77 % 0 in
16:42 46.8 °F 39.9 °F 29.7 in WSW 11 mph 19 mph 77 % 0 in
16:47 47.1 °F 39.9 °F 29.7 in SSW 6 mph 18 mph 76 % 0 in
16:52 47.5 °F 39.6 °F 29.7 in West 6 mph 18 mph 74 % 0 in
16:57 47.5 °F 39.2 °F 29.7 in West 17 mph 17 mph 73 % 0 in
17:02 47.3 °F 39.4 °F 29.7 in West 15 mph 20 mph 74 % 0 in
17:07 47.1 °F 39.2 °F 29.7 in WSW 9 mph 20 mph 74 % 0 in
17:12 46.9 °F 39.4 °F 29.7 in WSW 7 mph 20 mph 75 % 0 in
17:17 46.6 °F 39 °F 29.7 in WSW 9 mph 17 mph 75 % 0 in
17:22 46.4 °F 39.2 °F 29.7 in WSW 6 mph 13 mph 76 % 0 in
17:27 46.6 °F 39.4 °F 29.7 in SW 5 mph 15 mph 76 % 0 in
17:32 46.4 °F 39.2 °F 29.7 in WSW 10 mph 15 mph 76 % 0 in
17:37 46.2 °F 39 °F 29.7 in WSW 6 mph 15 mph 76 % 0 in
17:42 46 °F 38.8 °F 29.7 in WSW 5 mph 12 mph 76 % 0 in
17:47 45.9 °F 39 °F 29.7 in West 6 mph 12 mph 77 % 0 in
17:52 45.7 °F 38.8 °F 29.7 in SW 5 mph 11 mph 77 % 0 in
17:57 45.7 °F 38.8 °F 29.7 in WSW 4 mph 10 mph 77 % 0 in
18:02 45.3 °F 38.8 °F 29.7 in WSW 6 mph 10 mph 78 % 0 in
18:07 45.3 °F 38.8 °F 29.7 in West 6 mph 10 mph 78 % 0 in
18:12 45.1 °F 38.7 °F 29.7 in SW 2 mph 9 mph 78 % 0 in
18:17 45 °F 38.5 °F 29.7 in SW 4 mph 8 mph 78 % 0 in
18:22 45 °F 38.8 °F 29.7 in SW 3 mph 10 mph 79 % 0 in
18:27 44.4 °F 38.7 °F 29.7 in SW 3 mph 10 mph 80 % 0 in
18:32 44.2 °F 38.5 °F 29.7 in SW 3 mph 10 mph 80 % 0 in
18:37 44.2 °F 38.5 °F 29.7 in WSW 3 mph 7 mph 80 % 0 in
18:42 44.1 °F 38.7 °F 29.7 in SW 3 mph 7 mph 81 % 0 in
18:47 44.1 °F 38.7 °F 29.7 in SW 3 mph 6 mph 81 % 0 in
18:52 43.9 °F 38.5 °F 29.7 in SW 3 mph 6 mph 81 % 0 in
18:57 43.9 °F 38.5 °F 29.7 in SW 3 mph 5 mph 81 % 0 in
19:02 43.7 °F 38.3 °F 29.7 in SSW 2 mph 5 mph 81 % 0 in
19:07 42.4 °F 37.4 °F 29.7 in SSW 2 mph 5 mph 82 % 0 in
19:12 41.2 °F 37 °F 29.7 in SSW 1 mph 5 mph 85 % 0 in
19:17 40.6 °F 37.4 °F 29.7 in SSW 2 mph 3 mph 88 % 0 in
19:22 40.6 °F 37.4 °F 29.7 in SSW 2 mph 3 mph 88 % 0 in
19:32 41.2 °F 37.9 °F 29.7 in SW 3 mph 4 mph 88 % 0 in
19:37 41.5 °F 37.9 °F 29.7 in SW 4 mph 4 mph 87 % 0 in
19:42 41.7 °F 37.8 °F 29.7 in SW 6 mph 6 mph 86 % 0 in
19:47 42.1 °F 37.9 °F 29.7 in SW 3 mph 6 mph 85 % 0 in
19:52 42.1 °F 37.6 °F 29.7 in SSW 3 mph 7 mph 84 % 0 in
19:57 42.1 °F 37.6 °F 29.7 in SSW 4 mph 7 mph 84 % 0 in
20:02 41.7 °F 37.6 °F 29.7 in SW 4 mph 7 mph 85 % 0 in
20:07 41.2 °F 37 °F 29.7 in South 2 mph 7 mph 85 % 0 in
20:12 40.6 °F 36.9 °F 29.7 in SSW 1 mph 6 mph 86 % 0 in
20:17 40.3 °F 36.5 °F 29.7 in SW 2 mph 5 mph 86 % 0 in
20:22 39.7 °F 36.1 °F 29.7 in SSW 1 mph 4 mph 87 % 0 in
20:27 39.4 °F 36.1 °F 29.7 in SSW 2 mph 3 mph 88 % 0 in
20:32 39.4 °F 36.5 °F 29.7 in SSW 2 mph 3 mph 89 % 0 in
20:42 39 °F 35.8 °F 29.7 in Calm   3 mph 88 % 0 in
20:47 38.8 °F 35.6 °F 29.7 in Calm   3 mph 88 % 0 in
20:52 37.9 °F 34.7 °F 29.7 in Calm   2 mph 88 % 0 in
20:57 37.6 °F 34.7 °F 29.7 in Calm   2 mph 89 % 0 in
21:02 37.2 °F 34.5 °F 29.7 in Calm   2 mph 90 % 0 in
21:07 37.2 °F 34.9 °F 29.7 in Calm   2 mph 91 % 0 in
21:12 37.2 °F 35.1 °F 29.7 in Calm   1 mph 92 % 0 in
21:17 37.2 °F 34.9 °F 29.7 in Calm     91 % 0 in
21:22 37.2 °F 34.9 °F 29.7 in Calm     91 % 0 in
21:27 37.6 °F 35.4 °F 29.7 in Calm     92 % 0 in
21:32 37.8 °F 35.1 °F 29.7 in Calm     90 % 0 in
21:37 37.6 °F 34.9 °F 29.7 in Calm     90 % 0 in
21:42 37.9 °F 35.6 °F 29.7 in Calm     91 % 0 in
21:47 38.1 °F 35.2 °F 29.7 in SSW 2 mph 2 mph 89 % 0 in
21:52 37.9 °F 35.1 °F 29.7 in SSW 1 mph 2 mph 89 % 0 in
21:57 37.9 °F 35.1 °F 29.7 in SSW 1 mph 2 mph 89 % 0 in
22:02 38.3 °F 35.4 °F 29.7 in South 1 mph 4 mph 89 % 0 in
22:07 38.5 °F 35.2 °F 29.7 in SW 3 mph 4 mph 88 % 0 in
22:12 38.8 °F 35.2 °F 29.7 in SSW 4 mph 6 mph 87 % 0 in
22:17 39.2 °F 35.6 °F 29.7 in SSW 3 mph 6 mph 87 % 0 in
22:22 39.2 °F 35.6 °F 29.7 in SW 4 mph 7 mph 87 % 0 in
22:27 39.4 °F 35.8 °F 29.7 in SSW 1 mph 7 mph 87 % 0 in
22:32 39.4 °F 35.8 °F 29.7 in SSW 4 mph 6 mph 87 % 0 in
22:37 39.4 °F 35.8 °F 29.7 in SSW 3 mph 6 mph 87 % 0 in
22:42 39.6 °F 36 °F 29.7 in SW 2 mph 6 mph 87 % 0 in
22:47 39.7 °F 36 °F 29.7 in South 1 mph 6 mph 86 % 0 in
22:52 39.7 °F 36 °F 29.7 in South 1 mph 6 mph 86 % 0 in
22:57 39.7 °F 36.1 °F 29.7 in South 1 mph 4 mph 87 % 0 in
23:02 39.7 °F 36.1 °F 29.7 in SW 1 mph 4 mph 87 % 0 in
23:07 39.7 °F 36.1 °F 29.7 in SSW 2 mph 3 mph 87 % 0 in
23:12 39.9 °F 36.3 °F 29.7 in SSW 1 mph 2 mph 87 % 0 in
23:17 39.9 °F 36.3 °F 29.7 in Calm   2 mph 87 % 0 in
23:22 39.7 °F 36.1 °F 29.7 in Calm   2 mph 87 % 0 in
23:27 39.9 °F 36.3 °F 29.7 in Calm   1 mph 87 % 0 in
23:32 39.9 °F 36.3 °F 29.7 in Calm   1 mph 87 % 0 in
23:37 39.9 °F 36.3 °F 29.7 in Calm   1 mph 87 % 0 in
23:42 40.1 °F 36.5 °F 29.7 in Calm     87 % 0 in
23:47 40.1 °F 36.5 °F 29.7 in Calm     87 % 0 in
23:52 40.1 °F 36.9 °F 29.7 in Calm     88 % 0 in
23:57 40.3 °F 37 °F 29.7 in Calm   1 mph 88 % 0 in
Meteo18
Compliments of Weather Underground - 4 mb

Script developed by  Jim McMurry - jmcmurry@mwt.net Adapted for the template by  Wim van der Kuil - Leuven-Template.eu

You find our weather info also at:

European Weather Network

Weather Underground

Equipment we use:

Weather-station
Davis Vue

Weather-program
Meteohub

Weather-server
Raspberry PI 2 B+

Provider
1 and 1

Davis Vue

Meteohub

Raspberry PI 2 B+

1 and 1